Погода в Валгуссах

Россия / Ульяновская область     54°03′30″N   46°12′01″E
темп.,
°C
ветер,
м/с
пор.,
м/с
влажн.,
%
обл.,
%
осадки,
мм/ч
давл.,
гПа
погр.,
м
11 апреля, вс
вс1101:00+1ссз2699100 0.0 1025210
04:00+1с3999100 0.0 1026284
07:00+2с3999100 0.1 1027302
10:00+3ссв3999100 0.2 1028298
13:00+5ссв4898100 0.3 1029367
16:00+5ссв41098100 2.8 1030393
19:00+4св41198100 0.3 1031362
22:00+4св31098100 0.4 1032327
12 апреля, пн
пн1201:00+4всв51199100 0.5 1032266
04:00+4св3999100 1.1 1033279
07:00+4всв41198100 0.0 1034321
10:00+6всв41096100 0.0 1034377
13:00+10в478598 0.0 1034463
16:00+13в4675100 0.0 1033575
19:00+11всв3790100 0.0 1033193
22:00+9в2793100 0.0 1033113
13 апреля, вт
вт1301:00+8вюв2289100 0.0 103317
04:00+7вюв228985 0.0 103411
07:00+7юв228972 0.0 103320
10:00+13ююв476353 0.0 1033450
13:00+16ююв46405 0.0 10321041
16:00+17ююв46385 0.0 10311253
19:00+13юв24584 0.0 103063
22:00+9юв22682 0.0 103115
14 апреля, ср
ср1401:00+7юв227257 0.0 103115
04:00+6юв22778 0.0 103016
07:00+6юв227628 0.0 103025
10:00+12юв36508 0.0 1029398
13:00+16ююв45355 0.0 1027932
16:00+17ююв45330 0.0 10251127
19:00+13юв26535 0.0 1024103
22:00+9юв22665 0.0 102512
15 апреля, чт
чт1501:00+7юв22705 0.0 102411
04:00+6юв22760 0.0 102311
07:00+6юв22785 0.0 102314
10:00+13ююв24585 0.0 1021414
13:00+17ю23463 0.0 10201250
16:00+18ю23420 0.0 10181614
19:00+15вюв11571 0.0 101711
22:00+11юв11715 0.0 101710